Regional Weather Roundup
Issued by NWS

Home | Current Version | Previous Version | Graphics & Text | Print | Product List | Glossary Off
Versions: 1 2 3 4 5 6 7 8 9 10 11 12 13 14 15 16 17 18 19 20 21 22 23 24 25 26 27 28 29 30 31 32 33 34 35 36 37 38 39 40 41 42 43 44 45 46 47 48 49 50

000
ASUS43 KMKX 140820
RWRWI

WISCONSIN REGIONAL WEATHER ROUNDUP
NATIONAL WEATHER SERVICE MILWAUKEE/SULLIVAN WI
200 AM CST THU DEC 14 2017

NOTE: "FAIR" INDICATES FEW OR NO CLOUDS BELOW 12,000 FEET WITH NO
SIGNIFICANT WEATHER AND/OR OBSTRUCTIONS TO VISIBILITY.

WIZ001-002-006>008-014>016-023>028-140900-
NORTHWEST WISCONSIN

CITY           SKY/WX    TMP DP  RH WIND       PRES   REMARKS
SUPERIOR ARPT  CLEAR      1  -2  87 SW3       29.98R
ASHLAND        CLEAR      6   2  83 CALM      29.94F
HAYWARD        CLOUDY    19  13  77 CALM      29.92S
SIREN          FLURRIES  17  15  93 NW5       29.97R WCI  10
CUMBERLAND     FOG        9   5  85 S3        29.93S VSB 1/4
RICE LAKE      CLEAR     11   9  94 CALM      29.96S
CHETEK           N/A     13  11  92 CALM      29.96R
LADYSMITH      CLOUDY     5   2  87 CALM      29.94R
EAU CLAIRE     CLOUDY     4   1  88 S3        29.95S
MENOMONIE      CLOUDY    10   7  89 SW5       29.97S WCI   1
NEW RICHMOND   CLOUDY     8   5  86 CALM      29.97R
OSCEOLA        CLOUDY    14  14 100 CALM      30.00R
$$

WIZ003>005-009-010-017-018-140900-
NORTH CENTRAL WISCONSIN

CITY           SKY/WX    TMP DP  RH WIND       PRES   REMARKS
MANITOWISH WTR FLURRIES  13  12  95 CALM      29.85R
ARBOR VITAE    FLURRIES  17  13  85 NW5       29.85R WCI  10
WOODRUFF       FLURRIES  17  13  85 NW5       29.85R WCI  10
RHINELANDER    CLOUDY     6   2  83 CALM      29.86R
EAGLE RIVER    CLOUDY    12   6  77 NW3       29.84R
LAND O LAKES   LGT SNOW  13   9  84 CALM      29.86R
PHILLIPS       CLOUDY    10   8  93 CALM      29.88R
TOMAHAWK       CLOUDY    10   8  88 CALM      29.89R
MEDFORD        CLOUDY     5   2  88 CALM      29.89R
MERRILL        MOCLDY     8   6  90 NW3       29.89R
$$

WIZ029-030-035-036-043>047-140900-
CENTRAL WISCONSIN

CITY           SKY/WX    TMP DP  RH WIND       PRES   REMARKS
WAUSAU         MOCLDY    10   8  92 NW5       29.88R WCI   2
MOSINEE        CLOUDY    10   9  92 W5        29.91R WCI   2
MARSHFIELD     CLOUDY     9   6  88 NW8       29.91R WCI  -3
STEVENS POINT  CLOUDY     1  -1  91 CALM      29.92R
WAUPACA        PTCLDY    10   7  85 NW3       29.93R
WAUTOMA        CLOUDY     3   1  91 NW5       29.94R WCI  -6
WISC RAPIDS    CLOUDY     7   4  87 CALM      29.94R
CAMP DOUGLAS   CLEAR      9   6  87 W6        29.95R WCI   0
$$

WIZ011>013-019>022-031-037>040-048>050-140900-
NORTHEAST WISCONSIN

CITY           SKY/WX    TMP DP  RH WIND       PRES   REMARKS
ANTIGO         FLURRIES  13  10  90 NW5       29.86R WCI   5
SHAWANO        PTCLDY    11   7  85 NW5       29.90R WCI   3
OCONTO         CLOUDY    -2  -5  85 CALM      29.89S
STURGEON BAY   CLOUDY    19  11  70 N18       29.86S WCI   4
GREEN BAY      CLOUDY     7   3  84 NW9       29.90R WCI  -7
MANITOWOC      CLOUDY     7   5  91 NW7       29.89R WCI  -5
APPLETON       CLOUDY    10   5  79 NW9       29.88R WCI  -2
CLINTONVILLE   PTCLDY     9   3  78 W5        29.91R WCI   0
OSHKOSH        CLOUDY    10   7  87 W7        29.90R WCI  -1
$$

WIZ032>034-041-042-053>061-140900-
SOUTHWEST WISCONSIN

CITY           SKY/WX    TMP DP  RH WIND       PRES   REMARKS
LA CROSSE      PTCLDY    10   7  87 N5        29.99R WCI   2
SPARTA         CLEAR      4   2  92 CALM      29.98R
VIROQUA        PTCLDY    13  12  98 CALM      29.93R
BOSCOBEL       PTCLDY    15  10  80 CALM      29.98R
PRAIRIE DU CHI CLEAR     18  11  75 CALM      29.99R
PLATTEVILLE    CLEAR     14  11  89 N8        29.94R WCI   2
$$

WIZ056-057-062-063-064-067-068-140900-
SOUTH CENTRAL WISCONSIN

CITY           SKY/WX    TMP DP  RH WIND       PRES   REMARKS
REEDSBURG      CLEAR     13  10  87 NW3       29.95R
BARABOO/DELLS  CLEAR     11   8  89 CALM      29.94R
LONE ROCK      PTCLDY    12   9  87 CALM      29.98R
MINERAL POINT  CLEAR     18  14  86 N5        29.93R WCI  11
MADISON        CLEAR     12   8  84 NW5       29.93R WCI   4
MIDDLETON      CLEAR     15  10  83 NW3       29.95R
WATERTOWN      CLOUDY    11   8  87 NW5       29.91R WCI   3
MONROE         CLEAR     18  10  73 N8        29.91R WCI   7
JANESVILLE     CLEAR     18  10  73 NW6       29.92R WCI   9
$$

WIZ051-052-058>065-066-070>072-140900-
SOUTHEAST WISCONSIN

CITY           SKY/WX    TMP DP  RH WIND       PRES   REMARKS
MILWAUKEE      CLEAR     17  10  74 NW9       29.88R WCI   6
WAUKESHA       CLEAR     10   7  85 NW8       29.90R WCI  -1
MILWAUKEE/TIMM CLEAR     14   7  73 NW10      29.90R WCI   1
RACINE         CLEAR     17  10  74 NW8       29.89R WCI   7
BURLINGTON     CLEAR     14  11  90 N7        29.90R WCI   3
KENOSHA        CLEAR     16   8  71 NW10      29.87R WCI   4
FOND DU LAC    CLOUDY     7   3  84 W3        29.91R
SHEBOYGAN      CLOUDY     9   7  92 NW7       29.89R WCI  -2
WEST BEND      CLEAR     10   9  92 NW7       29.89R WCI   0
JUNEAU         CLOUDY     9   5  85 CALM      29.92R
$$

LSZ147-162-140900-
LAKE SUPERIOR

STATION/POSITION TIME  TEMP    WIND        PRES    WAVE
                       AIR SEA DIR/SP/G            HT/PER
                 (UTC) (F)     (DEG/KT/KT) (MB)    (FT/S)
DEVILS ISLAND    0800   17     310/  4/  6 1015.4R
SAXON HARBOR     0740   21                 1013.2R
$$

LMZ867-665-643>646-140900-
LAKE MICHIGAN

STATION/POSITION TIME  TEMP    WIND        PRES    WAVE
                       AIR SEA DIR/SP/G            HT/PER
                 (UTC) (F)     (DEG/KT/KT) (MB)    (FT/S)
NORTHPORT PIER   0751   22     340/ 20     1010.8R
KEWAUNEE LAKESHO 0754    9     300/  5/  6 1011.1R
SHEBOYGAN LAKESH 0800   15     310/ 12/ 15 1013.5R
PORT WASHINGTON  0730   14     310/  8/ 11 1012.9R
MILWAUKEE LAKESH 0800   17     320/ 10/ 15   N/A
KENOSHA   LAKESH 0800   17     310/ 10/ 14 1012.2
$$

TC  - TEMPERATURE IN CELSIUS
VSB - VISIBILITY IN STATUTE MILES
WCI - WIND CHILL INDEX
HX  - HEAT INDEX





USA.gov is the U.S. government's official web portal to all federal, state and local government web resources and services.